Location: Newark
(33.6439°N, 114.9881°W)
Time: 15:57:31
(UTC+00:00)

Envisat - Pass Details

Date: 24 March 2019
Orbit: 764 x 766 km, 98.1° (Epoch: 18 October)

Event Time Altitude Azimuth Distance (km) Brightness Sun altitude
Rises 02:18:07 0° 165° (SSE) 3,213 6.0 -5.9°
Reaches altitude 10° 02:20:24 10° 165° (SSE) 2,291 5.3 -6.4°
Maximum altitude 02:25:27 85° 78° (ENE) 771 3.0 -7.4°
Drops below altitude 10° 02:30:33 10° 349° (N) 2,305 5.7 -8.4°
Sets 02:32:51 0° 349° (N) 3,235 6.5 -8.9°
